Point Mugu Nawc, CA

5:03 PM PDT on August 25, 2016 (GMT -0700)
Point Mugu Naval Air Station

Weather History for KNTD - August, 2013

Change the Weather History Date:

Friday, August 2, 2013

  Actual Average Record
Temperature  
Mean Temperature 64 °F -  
Max Temperature 71 °F 70 °F 81 °F (1997)
Min Temperature 58 °F 56 °F 50 °F (1997)
Growing Degree Days 14 (Base 50)    
Moisture  
Dew Point 57 °F    
Average Humidity 78    
Maximum Humidity 83    
Minimum Humidity 68    
Precipitation  
Precipitation 0.00 in - - ()
Sea Level Pressure  
Sea Level Pressure 29.95 in    
Wind  
Wind Speed 5 mph (West)    
Max Wind Speed 12 mph    
Max Gust Speed -    
Visibility 7 miles    
Events      
Averages and records for this station are not official NWS values.
T = Trace of Precipitation, MM = Missing Value Source: NWS Daily Summary

Daily Weather History Graph

Daily Weather History Graph

Search for Another Location

Airport or City:

Trip Planner

Search our weather history database for the weather conditions in past years. The results will help you decide how hot, cold, wet, or windy it might be!

Date:

Astronomy

Aug. 02, 2013 Rise Set
Actual Time 6:08 AM PDT 7:56 PM PDT
Civil Twilight 5:41 AM PDT 8:23 PM PDT
Nautical Twilight 5:08 AM PDT 8:56 PM PDT
Astronomical Twilight 4:33 AM PDT 9:31 PM PDT
Moon 2:35 AM PDT (8/2) 4:55 PM PDT (8/2)
Length of Visible Light 14h 42m
Length of Day
13h 47m
Waning Crescent, 15% of the Moon is Illuminated
Aug 2
Waning Crescent
Aug 6
New
Aug 14
First Quarter
Aug 20
Full
Aug 28
Last Quarter

Hourly Weather History & Observations

Time (PDT) Temp. Dew Point Humidity Pressure Visibility Wind Dir Wind Speed Gust Speed Precip Events Conditions
12:54 AM - - N/A% - - SSE 9.2 mph - 0.00 in   Unknown
1:54 AM - - N/A% - - East 3.5 mph - 0.00 in   Clear
2:54 AM - - N/A% - - Calm Calm - 0.00 in   Clear
3:54 AM - - N/A% - - Calm Calm - 0.00 in   Clear
4:54 AM - - N/A% - - Calm Calm - 0.00 in   Clear
5:54 AM - - N/A% - - NNE 4.6 mph - N/A   Clear
6:02 AM 59.0 °F 53.6 °F 82% 29.93 in 7.0 mi North 4.6 mph - N/A   Scattered Clouds
6:54 AM 58.5 °F 53.1 °F 82% 29.94 in 7.0 mi North 3.5 mph - N/A   Scattered Clouds
7:01 AM 59.0 °F 53.6 °F 82% 29.93 in 7.0 mi North 4.6 mph - N/A   Mostly Cloudy
7:54 AM 62.4 °F 56.7 °F 81% 29.94 in 7.0 mi Variable 4.6 mph - N/A   Mostly Cloudy
8:01 AM 62.6 °F 57.2 °F 82% 29.95 in 7.0 mi Variable 3.5 mph - N/A   Scattered Clouds
8:54 AM 63.3 °F 57.0 °F 80% 29.96 in 7.0 mi Calm Calm - N/A   Scattered Clouds
9:54 AM 63.3 °F 57.9 °F 83% 29.96 in 7.0 mi Variable 6.9 mph - N/A   Scattered Clouds
10:54 AM 63.5 °F 57.9 °F 82% 29.97 in 7.0 mi South 8.1 mph - N/A   Scattered Clouds
11:01 AM 66.2 °F 59.0 °F 78% 29.97 in 7.0 mi South 8.1 mph - N/A   Mostly Cloudy
12:54 PM 67.1 °F 59.0 °F 75% 29.97 in 7.0 mi WSW 6.9 mph - N/A   Mostly Cloudy
1:54 PM 71.4 °F 61.2 °F 70% 29.95 in 7.0 mi WSW 8.1 mph - N/A   Mostly Cloudy
2:54 PM 70.2 °F 59.0 °F 68% 29.94 in 7.0 mi West 10.4 mph - N/A   Mostly Cloudy
3:54 PM 67.5 °F 59.0 °F 74% 29.94 in 7.0 mi West 10.4 mph - N/A   Mostly Cloudy
4:54 PM 68.2 °F 59.0 °F 72% 29.94 in 7.0 mi West 11.5 mph - N/A   Mostly Cloudy
5:54 PM 66.7 °F 57.9 °F 73% 29.91 in 7.0 mi West 9.2 mph - N/A   Mostly Cloudy
6:54 PM 64.6 °F 57.0 °F 76% 29.92 in 7.0 mi West 10.4 mph - N/A   Mostly Cloudy
7:54 PM 63.3 °F 57.0 °F 80% 29.94 in 7.0 mi West 4.6 mph - N/A   Mostly Cloudy
8:54 PM 62.8 °F 55.9 °F 78% 29.94 in 7.0 mi WNW 3.5 mph - N/A   Mostly Cloudy
9:54 PM 62.1 °F 55.9 °F 80% 29.96 in 7.0 mi Calm Calm - N/A   Mostly Cloudy
10:54 PM 61.3 °F 55.9 °F 82% 29.96 in 7.0 mi Calm Calm - N/A   Mostly Cloudy
11:54 PM 61.0 °F 55.9 °F 83% 29.96 in 7.0 mi Calm Calm - N/A   Mostly Cloudy